TIME,DELAY(SENSOR),PRES,OXYGEN,RAWTEMP,T(OPTODE),TCPHASE,FLUOR,BETA(BETA700),BETA(BETA412),BETA(BETA440),CDOM,C(CSC),ED(ED411.90),ED(ED443.80),ED(ED489.40),ED(ED554.70),LU(LU412.20),LU(LU443.80),LU(LU489.40),LU(LU555.00),COMP,TILTX,TILTY,CHECK
1342391593,5804,837.6400146484375000,172.5543060302734400,390.9479064941406000,10.8784503936767580,37.8964004516601560,52,101,99,80,80,14374,2146956342,2147515200,2147281261,2147502061,2147088228,2146935561,2147694153,2147123026,2045,-2,8,15096
1342395189,5809,965.2600097656250000,185.6497955322265600,476.0154113769531000,8.2717332839965820,38.4043006896972660,53,100,99,80,81,14368,2146953270,2147513782,2147289883,2147518436,2147091913,2146923922,2147711305,2147120448,2667,-1,8,19179
1342398789,5807,988.9400024414062000,200.9349060058593800,494.8463134765625000,7.6892938613891600,37.7513084411621100,52,100,99,79,82,14366,2146955328,2147515968,2147293531,2147522130,2147096237,2146924169,2147718171,2147118089,3582,-1,8,16717
1342402389,5807,991.3099975585938000,202.1009063720703000,495.9537963867187500,7.6549692153930660,37.6999015808105500,53,104,99,78,82,14364,2146956269,2147518372,2147295606,2147521782,2147094052,2146919981,2147717924,2147115629,602,-2,8,13962
1342405989,5806,997.6900024414062000,203.0634002685547000,497.2037963867187500,7.6162180900573730,37.6628112792968750,53,102,99,80,81,14361,2146954889,2147517568,2147293110,2147521188,2147092251,2146925860,2147714048,2147118610,1345,-1,8,60220
1342409589,5802,1001.6699829101562000,203.5471954345703000,498.3027954101562500,7.5821371078491210,37.6518783569335940,53,103,101,79,82,14364,2146959524,2147514706,2147295433,2147524809,2147094226,2146922706,2147717851,2147120850,3383,-1,8,35168
1342413189,5807,1001.7999877929688000,203.3775024414062500,499.5979919433594000,7.5419650077819820,37.6856384277343750,52,102,100,79,81,14364,2146958738,2147518555,2147294244,2147523300,2147094253,2146920896,2147717184,2147117056,142,-1,8,38464
1342416789,5808,1003.3300170898438000,202.9745941162109400,499.7886047363281000,7.5360531806945800,37.7126998901367200,52,102,100,80,82,14361,2146957504,2147516745,2147295021,2147522633,2147091254,2146923894,2147715748,2147119936,425,-1,8,60992
1342420389,5803,1006.4899902343750000,203.1105041503906200,499.5810852050781000,7.5424900054931640,37.7018089294433600,52,104,99,79,81,14356,2146959158,2147515474,2147297353,2147525769,2147093869,2146917659,2147714880,2147122139,305,-1,8,8509
1342423989,5807,1006.6699829101562000,203.1354980468750000,499.8192138671875000,7.5351037979125980,37.7036514282226560,52,101,99,78,82,14351,2146957165,2147518326,2147292726,2147519780,2147093037,2146921709,2147715227,2147119789,841,-2,8,41470
1342427589,5807,1003.7800292968750000,204.1703948974609400,501.4328002929687500,7.4850349426269530,37.6689910888671900,52,104,100,79,81,14355,2146956562,2147515355,2147293760,2147523520,2147094619,2146918089,2147719945,2147118482,751,-1,8,33062
1342431189,5807,1005.2999877929688000,204.6089935302734400,501.6160888671875000,7.4793481826782230,37.6459083557128900,52,102,101,79,81,14356,2146955136,2147514825,2147296822,2147521947,2147091766,2146923949,2147716626,2147121481,649,-1,8,44832
1342434789,5804,1009.9500122070312000,206.2091064453125000,501.7181091308594000,7.4761800765991210,37.5515708923339840,54,106,100,80,82,14357,2146958052,2147516059,2147297965,2147521152,2147092059,2146923419,2147718518,2147119250,2078,-2,8,21334
1342438389,5803,1007.8200073242188000,206.1894989013672000,502.1510925292969000,7.4627442359924320,37.5604705810546900,53,100,100,80,81,14350,2146955510,2147520859,2147294701,2147522633,2147091300,2146918701,2147719497,2147116032,2947,-1,8,42906
1342441989,5804,1016.7700195312500000,205.5043945312500000,500.5726928710937500,7.5117239952087400,37.5739784240722660,53,105,101,79,82,14356,2146957723,2147519872,2147296164,2147522752,2147091017,2146916562,2147714477,2147122624,3316,-2,8,7676
1342445589,5806,1014.5300292968750000,204.5684051513672000,500.5736999511719000,7.5116949081420900,37.6306190490722660,52,102,100,79,82,14355,2146956781,2147517714,2147291373,2147521289,2147091684,2146922276,2147717330,2147119186,3197,-2,8,13414
1342449189,5803,1008.9000244140625000,204.9295043945312500,501.8606872558594000,7.4717569351196290,37.6309585571289060,52,102,100,79,82,14354,2146957906,2147516132,2147292132,2147521371,2147093513,2146922203,2147714121,2147117942,2993,-1,8,28252
1342452789,5805,1008.2500000000000000,206.6022949218750000,503.3776855468750000,7.4246659278869630,37.5568695068359400,53,106,100,80,81,14354,2146958326,2147516973,2147291382,2147522779,2147092580,2146919442,2147718125,2147114834,111,-2,7,29313
1342456389,5808,1010.0300292968750000,207.7176055908203000,503.7632141113281000,7.4126968383789060,37.4973487854003900,53,105,100,81,83,14346,2146954761,2147521316,2147294445,2147523099,2147094372,2146917869,2147719744,2147117403,415,-1,8,10330
1342459989,5807,1012.2999877929688000,207.3424072265625000,504.3898925781250000,7.3932380676269530,37.5310592651367200,52,104,100,78,81,14351,2146954432,2147519085,2147292324,2147521590,2147090816,2146917202,2147719076,2147117184,3528,-1,8,11527
1342463589,5805,1011.1199951171875000,207.3919982910156200,503.7702941894531000,7.4124770164489750,37.5172080993652340,52,103,100,78,81,14349,2146957906,2147515849,2147296146,2147523995,2147094262,2146920338,2147719936,2147117805,1034,-1,8,9301
1342467189,5807,1008.8200073242188000,205.6143035888672000,504.3593139648437500,7.3941869735717770,37.6336708068847660,52,100,100,79,82,14347,2146955254,2147519186,2147295076,2147523337,2147092891,2146925814,2147716434,2147116406,517,-1,8,8726
1342470789,5807,1012.2899780273438000,208.8014984130859400,505.0396118164062500,7.3730611801147460,37.4559593200683600,52,103,100,79,81,14350,2146956306,2147518683,2147297526,2147522386,2147090989,2146916818,2147713216,2147115437,328,-1,8,46693
1342474389,5808,1012.8699951171875000,207.3119964599609400,504.2882995605469000,7.3963928222656250,37.5311012268066400,52,103,99,79,82,14348,2146954386,2147522560,2147295094,2147522550,2147092662,2146916571,2147721773,2147117010,729,-1,8,53940
1342477989,5804,1017.5000000000000000,206.1121978759765600,502.5668945312500000,7.4498357772827150,37.5721817016601560,52,104,100,81,82,14347,2146955693,2147518619,2147295414,2147519497,2147089947,2146916251,2147718390,2147114770,146,-1,8,23238
1342481589,5808,1018.5100097656250000,205.4664001464843800,503.2781066894531000,7.4277558326721190,37.6233406066894500,53,102,100,79,81,14347,2146957229,2147521161,2147295149,2147519936,2147089490,2146917696,2147721389,2147116845,115,-1,8,61821
1342485189,5804,1013.3400268554688000,207.0184020996093800,504.5115051269531000,7.3894610404968260,37.5520591735839840,53,104,99,80,82,14346,2146957622,2147517092,2147296941,2147518985,2147091629,2146921974,2147719003,2147116251,3358,-2,8,5706
1342488789,5805,1018.6500244140625000,206.7801055908203000,504.0650939941406000,7.4033207893371580,37.5590095520019500,53,103,101,83,81,14343,2146954678,2147514925,2147293266,2147523117,2147088667,2146920557,2147720685,2147115163,497,-1,8,61202
1342492389,5807,1019.0800170898438000,206.5549011230468800,503.0845031738281000,7.4337677955627440,37.5553283691406250,52,100,100,78,81,14340,2146956169,2147512402,2147295268,2147523254,2147091264,2146918692,2147716845,2147116754,2777,-1,8,8461
1342495989,5803,1019.1900024414062000,205.0292968750000000,503.1918029785156000,7.4304370880126950,37.6487312316894500,52,104,100,79,82,14341,2146961353,2147515282,2147295698,2147521344,2147091638,2146914176,2147720173,2147116827,2854,-1,8,22080
1342499589,5808,1015.6400146484375000,207.1912994384765600,503.7276000976562500,7.4138021469116210,37.5284805297851560,52,103,99,79,82,14339,2146956955,2147514578,2147299410,2147521371,2147090523,2146917504,2147715803,2147118336,3133,-1,8,47308
1342503189,5803,1014.2000122070312000,207.9396057128906200,504.8782958984375000,7.3780708312988280,37.5035705566406250,52,101,100,79,81,14337,2146953252,2147514916,2147295158,2147525686,2147093504,2146918354,2147716772,2147118930,3203,-1,8,50385
1342506789,5806,1017.4000244140625000,207.7333984375000000,504.4309082031250000,7.3919639587402340,37.5080909729003900,51,102,100,79,81,14339,2146953892,2147517696,2147294912,2147523675,2147093120,2146924882,2147716004,2147117339,3193,-1,8,90
1342510389,5806,1016.0200195312500000,207.7545928955078000,504.9905090332031000,7.3745851516723630,37.5165290832519500,52,104,100,79,82,14338,2146955702,2147522285,2147294784,2147519936,2147093275,2146925147,2147720128,2147113910,3422,-2,8,10194
1342513989,5807,1015.1300048828125000,208.8345947265625000,505.7497863769531000,7.3510007858276370,37.4664306640625000,53,103,99,80,81,14342,2146957193,2147520292,2147294930,2147522944,2147091446,2146920027,2147719643,2147115794,374,-2,8,43765
1342517589,5805,1018.2999877929688000,208.1394958496093800,504.7369995117187500,7.3824567794799805,37.4898910522460940,52,102,100,79,81,14282,2146958966,2147516918,2147295314,2147526070,2147093513,2146919360,2147717046,2147119277,2970,-2,8,60936
1342521189,5806,1012.9799804687500000,208.2494049072265600,506.8652954101562500,7.3163471221923830,37.5205307006835940,53,104,99,79,82,14331,2146957622,2147517522,2147294985,2147525028,2147091437,2146918016,2147715254,2147116973,3201,-2,8,30392
1342524789,5803,1015.4000244140625000,209.6101074218750000,506.9515075683594000,7.3136658668518070,37.4408683776855500,53,103,100,79,81,14322,2146955117,2147516288,2147295606,2147526153,2147091282,2146924086,2147720164,2147116086,3276,-1,8,48939
1342528389,5805,1019.1400146484375000,209.1869964599609400,506.7691040039062500,7.3193349838256840,37.4632987976074200,52,100,99,80,80,14326,2146955922,2147515163,2147295680,2147524297,2147093202,2146917266,2147720310,2147115254,3448,-2,8,12001
1342531989,5807,1014.6199951171875000,207.9915008544922000,506.0014953613281000,7.3431830406188965,37.5199584960937500,52,103,101,79,81,14322,2146959030,2147519451,2147296256,2147523776,2147092571,2146918555,2147717869,2147117275,3,-1,8,41070
1342533055,5807,1016.1500244140625000,207.7097015380859400,506.8599853515625000,7.3165087699890140,37.5518188476562500,52,108,100,79,82,14333,2146956480,2147514249,2147296374,2147526765,2147094390,2146916224,2147718418,2147113499,91,-2,8,25527
